566  
ASUS45 KBOU 240510  
RWRCO  
 
WEATHER ROUNDUP FOR COLORADO  
NATIONAL WEATHER SERVICE DENVER/BOULDER CO  
1100 PM MDT SAT JUN 23 2018  
 
NOTE: "FAIR" INDICATES FEW OR NO CLOUDS BELOW 12000 FEET WITH NO  
SIGNIFICANT WEATHER AND/OR S TO VISIBILITY
.  
 
COZ001>005-013-030-031-240600-   
..NORTHWEST COLORADO
 
 
 
CITY SKY/WX TMP DP RH WIND PRES REMARKS
 
CRAIG CLOUDY 67 38 34 E12G17 30.00R  
HAYDEN LGT RAIN 61 41 47 NE18G33 30.04R  
MEEKER FAIR 71 29 21 N17G31 29.98R  
RANGELY FAIR 69 31 25 CALM 29.89R  
RABBIT EARS PA DRIZZLE 43 36 75 W8 30.28R  
STEAMBOAT SPGS CLOUDY 61 40 46 N13 30.09R  
WALDEN CLOUDY 50 43 76 N8 30.16R  

 
 
COZ006>008-011-240600-   
..WEST CENTRAL VALLEYS
 
 
 
CITY SKY/WX TMP DP RH WIND PRES REMARKS
 
GRAND JUNCTION FAIR 78 21 12 NW6 29.79R  
MONTROSE FAIR 69 21 16 E6 29.88R  
EAGLE FAIR 68 30 24 SE8 29.96R  
RIFLE FAIR 79 25 13 N7G18 29.87R  
DELTA FAIR 83 22 10 S5 29.81S  
NUCLA FAIR 75 14 9 CALM 29.94R  

 
 
COZ017>023-064>068-240600-   
..SOUTHWEST COLORADO
 
 
 
CITY SKY/WX TMP DP RH WIND PRES REMARKS
 
DURANGO FAIR 62 25 24 N10 29.98S  
CORTEZ FAIR 62 30 29 E8 29.91S  
PAGOSA SPRINGS FAIR 58 14 17 CALM 30.08F  
TELLURIDE FAIR 64 11 12 W3 30.19S  
WOLF CREEK PAS FAIR 52 10 19 SW13G23 30.45F  

 
 
COZ009-010-012-014-032>034-037-058>063-240600-   
..CENTRAL COLORADO
 
 
 
CITY SKY/WX TMP DP RH WIND PRES REMARKS
 
ASPEN FAIR 61 29 29 SW10 30.01F  
BUENA VISTA FAIR 61 19 19 CALM 30.05S  
COPPER MTN FAIR 54 16 22 S14G20 30.35F  
BERTHOUD PASS CLOUDY 41 28 60 MISG 30.39F  
COTTONWOOD PAS FAIR 64 14 14 NW3 30.20F  
GUNNISON FAIR 58 32 37 N7 30.04S  
GRANBY CLOUDY 57 35 43 CALM 30.11R  
KREMMLING MOCLDY 68 32 26 CALM 30.09R  
LEADVILLE FAIR 50 20 30 SE6 30.18F  
MONARCH PASS FAIR 50 16 25 MISG 30.47F  
SALIDA FAIR 65 19 17 SW8 30.09S  
SUNLIGHT CLOUDY 54 21 28 CALM 30.29R  
WILKERSON PASS FAIR 54 12 19 SW10G18 30.34S  

 
 
COZ069>075-240600-   
..SAN LUIS VALLEY/SANGRE DE CRISTO MOUNTAINS
 
 
 
CITY SKY/WX TMP DP RH WIND PRES REMARKS
 
ALAMOSA FAIR 62 20 19 W7 30.04F  
DEL NORTE FAIR 63 18 17 W6 30.09S  
LA VETA PASS FAIR 59 19 21 MISG 30.37S  
SAGUACHE FAIR 61 19 20 NE13 30.07S  

 
 
COZ035-036-038>040-240600-   
..NORTHERN COLORADO FRONT RANGE
 
 
 
CITY SKY/WX TMP DP RH WIND PRES REMARKS
 
DENVER INTL AP MOCLDY 64 45 49 N24G36 29.94R  
AURORA PTCLDY 61 46 59 NW14 29.97R  
FRONT RANGE AP FAIR 64 47 54 NE14 29.92F  
ERIE MUNI ARPT FAIR N/A N/A N/A N9 30.03R  
BOULDER MUN AP FAIR 64 45 48 N13 30.00R  
CENTENNIAL FAIR 63 46 54 N15 29.96R  
BROOMFIELD FAIR 63 45 51 N14 30.02R  
FORT COLLINS LGT RAIN 63 49 60 N10 29.98R  
LONGMONT MOCLDY 67 46 47 NW5 29.99R  

 
 
COZ041-046-047-076>085-087-088-240600-   
..PIKES PEAK/PALMER DIVIDE AND SOUTHERN FOOTHILLS
 
 
 
CITY SKY/WX TMP DP RH WIND PRES REMARKS
 
COLO. SPRINGS FAIR 65 49 56 N5 29.96S  
A. F. ACADEMY FAIR 63 45 52 CALM 29.97S  
SCHRIEVER AFB NOT AVBL  
CHEYENNE MTN FAIR 68 41 38 SE5 29.95S  
ELLICOTT NOT AVBL  
FALCON FAIR 59 47 65 NE3 30.00F  
FORT CARSON CLEAR 62 48 60 N8 29.92S  
LIMON FAIR 58 56 93 CALM 29.90S  
MONUMENT HILL FAIR 57 46 67 S9 30.01S  
CANON CITY CLEAR 68 50 52 SE8 29.89S  
WALSENBURG FAIR 68 48 49 CALM 29.94R  
TRINIDAD FAIR 75 32 20 W12 29.89R  

 
 
COZ042>045-048>051-090-091-240600-   
..NORTHEAST COLORADO
 
 
 
CITY SKY/WX TMP DP RH WIND PRES REMARKS
 
GREELEY ARPT CLOUDY 64 48 56 N7 29.96R THUNDER  
AKRON FAIR 62 56 80 NE18G25 29.89R  
BURLINGTON FAIR 59 56 89 MISG 29.83S  
WRAY FAIR 63 55 77 NE12 29.86R  
YUMA FAIR 59 46 63 N14 29.89R  
STERLING FAIR 64 52 63 E10G16 29.88R  
HOLYOKE FAIR 61 55 82 NE7 29.89F  
FORT MORGAN FAIR 60 49 67 N21G29 29.89S  

 
 
COZ086-089-092>099-240600-   
..SOUTHEAST COLORADO
 
 
 
CITY SKY/WX TMP DP RH WIND PRES REMARKS
 
PUEBLO FAIR 72 55 55 N5 29.84R  
LA JUNTA FAIR 72 59 63 E23G29 29.80R  
LAMAR FAIR 61 55 81 SE18G28 29.82R  
SPRINGFIELD N/A 63 55 75 E18G29 29.89R  

 
 
 
CLICK HERE TO GO TO PREVIOUS BULLETINS.

The Nexlab CO Page Main Text Page